When you browse on this site, cookies collect data to enhance your experience and personalize the content and advertising you see.
Visit our Privacy Policy to learn more. By continuing to use the site, you agree to this use of cookies and data.
  • In Hungary
  • List of Countries
  • For 7 days
  • Water Temperature
  • Satellite Maps
  • Weather Map
  • News
  • Weather Widgets
  • user-avatar
    Login

    Hourly Weather Schijndel

    Today, 17 June, Monday

    Time Temperature Precipitation Wind Pressure Humidity
    00:00 +14°C° 0 mm 0 mps 765 mmHg 86%
    01:00 +15°C° 0 mm 1 mps 765 mmHg 87%
    02:00 +15°C° 0 mm 1 mps 765 mmHg 88%
    03:00 +14°C° 0 mm 1 mps 765 mmHg 89%
    04:00 +16°C° 0 mm 2 mps 765 mmHg 86%
    05:00 +17°C° 0 mm 2 mps 765 mmHg 83%
    06:00 +18°C° 0 mm 2 mps 765 mmHg 81%
    07:00 +20°C° 0 mm 2 mps 764 mmHg 74%
    08:00 +21°C° 0 mm 3 mps 764 mmHg 68%
    09:00 +24°C° 0 mm 3 mps 764 mmHg 62%
    10:00 +25°C° 0 mm 3 mps 764 mmHg 58%
    11:00 +25°C° 0 mm 3 mps 763 mmHg 54%
    12:00 +26°C° 0 mm 3 mps 763 mmHg 51%
    13:00 +27°C° 0 mm 2 mps 763 mmHg 50%
    14:00 +27°C° 0 mm 2 mps 763 mmHg 49%
    15:00 +27°C° 0 mm 2 mps 762 mmHg 48%
    16:00 +27°C° 0 mm 2 mps 762 mmHg 53%
    17:00 +26°C° 0 mm 1 mps 762 mmHg 57%
    18:00 +26°C° 0 mm 1 mps 762 mmHg 61%
    19:00 +24°C° 0 mm 1 mps 762 mmHg 66%
    20:00 +22°C° 0 mm 1 mps 762 mmHg 71%
    21:00 +19°C° 0 mm 2 mps 762 mmHg 77%
    22:00 +19°C° 0 mm 1 mps 762 mmHg 79%
    23:00 +19°C° 0 mm 1 mps 762 mmHg 80%

    Tomorrow, 18 June, Tuesday

    Time Temperature Precipitation Wind Pressure Humidity
    00:00 +18°C° 0 mm 1 mps 762 mmHg 82%
    01:00 +18°C° 0 mm 1 mps 761 mmHg 84%
    02:00 +18°C° 0 mm 1 mps 761 mmHg 85%
    03:00 +16°C° 0 mm 1 mps 761 mmHg 86%
    04:00 +18°C° 0 mm 1 mps 761 mmHg 84%
    05:00 +19°C° 0 mm 1 mps 761 mmHg 81%
    06:00 +20°C° 0 mm 1 mps 761 mmHg 79%
    07:00 +22°C° 0 mm 1 mps 760 mmHg 74%
    08:00 +23°C° 0 mm 1 mps 760 mmHg 70%
    09:00 +24°C° 0 mm 1 mps 760 mmHg 65%
    10:00 +26°C° 0 mm 1 mps 760 mmHg 61%
    11:00 +27°C° 0 mm 1 mps 759 mmHg 57%
    12:00 +28°C° 0 mm 1 mps 759 mmHg 53%
    13:00 +28°C° 0 mm 1 mps 758 mmHg 50%
    14:00 +28°C° 0 mm 1 mps 758 mmHg 48%
    15:00 +29°C° 0 mm 1 mps 758 mmHg 45%
    16:00 +28°C° 0 mm 1 mps 758 mmHg 52%
    17:00 +27°C° 0 mm 1 mps 757 mmHg 58%
    18:00 +27°C° 0 mm 1 mps 757 mmHg 65%
    19:00 +25°C° 0.4 mm 1 mps 757 mmHg 69%
    20:00 +24°C° 0.4 mm 1 mps 757 mmHg 73%
    21:00 +22°C° 0.4 mm 1 mps 757 mmHg 77%
    22:00 +22°C° 0 mm 1 mps 757 mmHg 78%
    23:00 +21°C° 0 mm 1 mps 756 mmHg 80%

    Day after tomorrow, 19 June, Wednesday

    Time Temperature Precipitation Wind Pressure Humidity
    00:00 +19°C° 0 mm 2 mps 756 mmHg 82%
    01:00 +20°C° 0 mm 1 mps 756 mmHg 82%
    02:00 +20°C° 0 mm 1 mps 755 mmHg 83%
    03:00 +20°C° 0 mm 1 mps 755 mmHg 84%
    04:00 +20°C° 0 mm 1 mps 755 mmHg 82%
    05:00 +20°C° 0 mm 2 mps 755 mmHg 81%
    06:00 +21°C° 0 mm 3 mps 754 mmHg 80%
    07:00 +22°C° 0 mm 3 mps 754 mmHg 74%
    08:00 +25°C° 0 mm 4 mps 754 mmHg 69%
    09:00 +26°C° 0 mm 4 mps 754 mmHg 64%
    10:00 +26°C° 0.1 mm 6 mps 754 mmHg 63%
    11:00 +26°C° 0.1 mm 8 mps 754 mmHg 62%
    12:00 +27°C° 0.1 mm 9 mps 754 mmHg 61%
    13:00 +26°C° 0.1 mm 9 mps 754 mmHg 64%
    14:00 +23°C° 0.1 mm 8 mps 754 mmHg 67%
    15:00 +22°C° 0.1 mm 7 mps 755 mmHg 70%
    16:00 +22°C° 0.1 mm 6 mps 755 mmHg 72%
    17:00 +21°C° 0.1 mm 5 mps 756 mmHg 74%
    18:00 +21°C° 0.1 mm 4 mps 756 mmHg 76%
    19:00 +19°C° 0 mm 3 mps 756 mmHg 80%
    20:00 +18°C° 0 mm 3 mps 757 mmHg 83%
    21:00 +16°C° 0 mm 2 mps 757 mmHg 87%
    22:00 +16°C° 0 mm 2 mps 757 mmHg 89%
    23:00 +15°C° 0 mm 2 mps 757 mmHg 90%

    20 June, Thursday

    Time Temperature Precipitation Wind Pressure Humidity
    00:00 +15°C° 0 mm 2 mps 757 mmHg 92%
    01:00 +15°C° 0 mm 2 mps 757 mmHg 92%
    02:00 +15°C° 0 mm 2 mps 757 mmHg 92%
    03:00 +14°C° 0 mm 2 mps 757 mmHg 93%
    04:00 +15°C° 0 mm 2 mps 758 mmHg 90%
    05:00 +16°C° 0 mm 2 mps 758 mmHg 87%
    06:00 +16°C° 0 mm 3 mps 758 mmHg 85%
    07:00 +17°C° 0 mm 3 mps 758 mmHg 81%
    08:00 +18°C° 0 mm 3 mps 758 mmHg 78%
    09:00 +19°C° 0 mm 3 mps 758 mmHg 74%
    10:00 +20°C° 0 mm 3 mps 758 mmHg 71%
    11:00 +21°C° 0 mm 4 mps 758 mmHg 67%
    12:00 +21°C° 0 mm 4 mps 758 mmHg 64%
    13:00 +21°C° 0.1 mm 4 mps 758 mmHg 64%
    14:00 +21°C° 0.1 mm 4 mps 758 mmHg 65%
    15:00 +21°C° 0.1 mm 4 mps 758 mmHg 65%
    16:00 +21°C° 0.2 mm 4 mps 758 mmHg 67%
    17:00 +20°C° 0.2 mm 4 mps 758 mmHg 69%
    18:00 +19°C° 0.2 mm 3 mps 758 mmHg 72%
    19:00 +18°C° 0 mm 3 mps 759 mmHg 69%
    20:00 +17°C° 0 mm 3 mps 759 mmHg 67%
    21:00 +16°C° 0 mm 2 mps 760 mmHg 65%
    22:00 +15°C° 0 mm 2 mps 760 mmHg 69%
    23:00 +14°C° 0 mm 2 mps 760 mmHg 73%

    21 June, Friday

    Time Temperature Precipitation Wind Pressure Humidity
    00:00 +14°C° 0 mm 2 mps 760 mmHg 77%
    01:00 +13°C° 0 mm 2 mps 760 mmHg 80%
    02:00 +12°C° 0 mm 2 mps 760 mmHg 83%
    03:00 +12°C° 0 mm 2 mps 760 mmHg 86%
    04:00 +12°C° 0 mm 3 mps 760 mmHg 86%
    05:00 +13°C° 0 mm 3 mps 761 mmHg 85%
    06:00 +13°C° 0 mm 3 mps 761 mmHg 85%
    07:00 +16°C° 0 mm 3 mps 761 mmHg 79%
    08:00 +17°C° 0 mm 4 mps 761 mmHg 73%
    09:00 +19°C° 0 mm 4 mps 762 mmHg 67%
    10:00 +19°C° 0.1 mm 4 mps 762 mmHg 65%
    11:00 +20°C° 0.1 mm 4 mps 762 mmHg 63%
    12:00 +20°C° 0.1 mm 4 mps 762 mmHg 61%
    13:00 +20°C° 0 mm 4 mps 762 mmHg 62%
    14:00 +20°C° 0 mm 4 mps 762 mmHg 62%
    15:00 +19°C° 0 mm 4 mps 762 mmHg 62%
    16:00 +19°C° 0 mm 4 mps 762 mmHg 64%
    17:00 +19°C° 0 mm 3 mps 762 mmHg 66%
    18:00 +18°C° 0 mm 3 mps 763 mmHg 67%
    19:00 +16°C° 0 mm 3 mps 763 mmHg 72%
    20:00 +15°C° 0 mm 2 mps 764 mmHg 76%
    21:00 +13°C° 0 mm 2 mps 764 mmHg 81%
    22:00 +13°C° 0 mm 2 mps 764 mmHg 83%
    23:00 +12°C° 0 mm 2 mps 764 mmHg 85%

    22 June, Saturday

    Time Temperature Precipitation Wind Pressure Humidity
    00:00 +12°C° 0 mm 2 mps 764 mmHg 87%
    01:00 +10°C° 0 mm 2 mps 764 mmHg 88%
    02:00 +10°C° 0 mm 2 mps 764 mmHg 89%
    03:00 +10°C° 0 mm 2 mps 764 mmHg 90%
    04:00 +12°C° 0 mm 2 mps 764 mmHg 87%
    05:00 +12°C° 0 mm 3 mps 765 mmHg 84%
    06:00 +13°C° 0 mm 3 mps 765 mmHg 80%
    07:00 +14°C° 0 mm 3 mps 765 mmHg 75%
    08:00 +17°C° 0 mm 3 mps 764 mmHg 69%
    09:00 +18°C° 0 mm 4 mps 764 mmHg 64%
    10:00 +19°C° 0 mm 4 mps 764 mmHg 60%
    11:00 +20°C° 0 mm 4 mps 764 mmHg 57%
    12:00 +21°C° 0 mm 4 mps 764 mmHg 53%
    13:00 +21°C° 0 mm 4 mps 764 mmHg 54%
    14:00 +21°C° 0 mm 4 mps 764 mmHg 54%
    15:00 +21°C° 0 mm 4 mps 764 mmHg 54%
    16:00 +20°C° 0 mm 4 mps 764 mmHg 59%
    17:00 +19°C° 0 mm 4 mps 764 mmHg 63%
    18:00 +19°C° 0 mm 4 mps 764 mmHg 68%
    19:00 +18°C° 0 mm 4 mps 764 mmHg 68%
    20:00 +17°C° 0 mm 4 mps 764 mmHg 69%
    21:00 +15°C° 0 mm 4 mps 765 mmHg 70%
    22:00 +15°C° 0 mm 4 mps 765 mmHg 71%
    23:00 +14°C° 0 mm 4 mps 765 mmHg 73%
    Show more